EW1858 Weather Reports


time (UTC)temp
C
wind
direction
speed
KPH
gust
KPH
rain 1hr
cm
rain 24hr
cm
rain mn
cm
humidity
%
barometer
mb
20260504050117 3 320 0.0 0.0 0.00 0.00 0.00 77 1013.6
20260504044547 4 320 0.0 0.0 0.00 0.00 0.00 77 1013.7
20260504043044 4 320 0.0 0.0 0.00 0.00 0.00 75 1013.6
20260504041538 5 320 0.0 0.0 0.00 0.00 0.00 74 1013.6
20260504040036 5 320 0.0 0.0 0.00 0.00 0.00 72 1013.6
20260504034540 6 320 0.0 0.0 0.00 0.00 0.00 71 1013.7
20260504033030 6 319 0.0 1.6 0.00 0.00 0.00 68 1013.6
20260504031601 6 319 0.0 0.0 0.00 0.00 0.00 67 1013.6
20260504030057 7 320 0.0 3.2 0.00 0.00 0.00 65 1013.5
20260504024553 7 320 0.0 3.2 0.00 0.00 0.00 66 1013.6
20260504023054 7 320 1.6 4.8 0.00 0.00 0.00 63 1013.4
20260504021545 10 44 3.2 8.0 0.00 0.00 0.00 56 1013.4
20260504020045 11 98 1.6 12.9 0.00 0.00 0.00 48 1013.4
20260504014515 11 86 3.2 9.7 0.00 0.00 0.00 48 1013.4
20260504013014 11 64 3.2 12.9 0.00 0.00 0.00 46 1013.3
20260504011512 12 84 1.6 8.0 0.00 0.00 0.00 45 1013.2
20260504010011 12 68 3.2 8.0 0.00 0.00 0.00 45 1013.1
20260504004519 12 92 4.8 14.5 0.00 0.00 0.00 42 1013.1
20260504003011 13 94 4.8 14.5 0.00 0.00 0.00 42 1012.9
20260504001510 12 96 1.6 12.9 0.00 0.00 0.00 43 1012.9
20260504000009 13 113 4.8 9.7 0.00 0.00 0.00 41 1012.7
20260503234512 13 85 6.4 19.3 0.00 0.00 0.00 40 1012.6
20260503233007 14 150 4.8 8.0 0.00 0.00 0.00 39 1012.6
20260503231537 14 108 1.6 16.1 0.00 0.00 0.00 38 1012.4
20260503230041 15 150 3.2 8.0 0.00 0.00 0.00 38 1012.5
20260503224507 15 108 4.8 22.5 0.00 0.00 0.00 37 1012.4
20260503223006 16 98 6.4 14.5 0.00 0.00 0.00 35 1012.4
20260503221534 16 103 1.6 8.0 0.00 0.00 0.00 35 1012.4
20260503220045 16 113 4.8 9.7 0.00 0.00 0.00 36 1012.6
20260503214503 15 143 6.4 22.5 0.00 0.00 0.00 36 1012.6
20260503213008 15 92 3.2 16.1 0.00 0.00 0.00 36 1012.5
20260503211532 15 60 4.8 14.5 0.00 0.00 0.00 36 1012.4
20260503210032 15 98 6.4 22.5 0.00 0.00 0.00 36 1012.4
20260503204503 15 120 8.0 19.3 0.00 0.00 0.00 35 1012.4
20260503203001 15 206 9.7 32.2 0.00 0.00 0.00 36 1012.5
20260503201529 16 123 4.8 24.1 0.00 0.00 0.00 36 1012.8
20260503200025 15 217 6.4 19.3 0.00 0.00 0.00 35 1013.2
20260503194519 15 152 9.7 19.3 0.00 0.00 0.00 35 1013.5
20260503193015 15 297 9.7 22.5 0.00 0.00 0.00 36 1013.5
20260503191519 15 206 4.8 17.7 0.00 0.00 0.00 37 1013.9
20260503190010 15 138 4.8 16.1 0.00 0.00 0.00 39 1014.0
20260503184505 15 120 9.7 19.3 0.00 0.00 0.00 38 1014.3
20260503183004 14 249 4.8 25.7 0.00 0.00 0.00 38 1014.2
20260503181503 14 125 9.7 22.5 0.00 0.00 0.00 39 1014.4
20260503180003 14 101 9.7 19.3 0.00 0.00 0.00 38 1014.4
20260503174529 14 121 4.8 16.1 0.00 0.00 0.00 39 1014.4
20260503173027 13 145 4.8 12.9 0.00 0.00 0.00 40 1014.6
20260503171555 13 115 4.8 12.9 0.00 0.00 0.00 40 1014.8
20260503081534 2 164 4.8 12.9 0.00 0.00 0.00 72 1014.8
20260503071526 2 30 3.2 4.8 0.00 0.00 0.00 72 1014.3
20260503054553 3 131 1.6 6.4 0.00 0.00 0.00 73 1014.4